DUPLEX

Last updated on Sun Jun 21 2026 00:02:11 GMT+0000 (Coordinated Universal Time)

1 66906U 98067XS 26171.31376001 .00035923 00000+0 39513-3 0 9990 2 66906 51.6286 273.6830 0003068 223.5446 136.5306 15.62799537 31146
UTC large
Height (km)
Speed (km/s)
/
Latitude / Longitude
Inclination (degrees)
Orbital Period (minutes)
Azimuth
Elevation
Range (km)
Doppler Factor

Next 0 passes for location: London (51.5072 / 0.1276)

No passes found over London.
DUPLEX